Voltar ao catálogo

STARLINK-35800

AtivoComunicaçõesVLEO
NORAD 66291·PAYLOAD·🇺🇸 United States

Lançado Oct 31, 2025 de Vandenberg Space Force Base

Loading…

Próximas Passagens (próximas 24 horas)

TLE

AtualizadoSource: CelesTrak SupGP

Época: Sep 14, 2026, 14:40 UTC

1 66291C 25247AC  26257.61159722 -.00100500  00000+0 -29710-2 0  2574
2 66291  53.1599  29.3231 0001218  83.3228 260.7436 15.34423267    12

Acompanhe STARLINK-35800 em tempo real com AllMySat

Download on the App Store